sat.trackr.live / text

‹ back to catalog

UNKNOWN

NORAD 82250

UNKNOWN UNKNOWN UNKNOWN

§ Identity

Operator
Country
Launch date
Launch site
Launch vehicle
Mass (kg)
RCS (m²)

External: N2YO · Heavens-Above

§ Orbital elements

Epoch: 2026-09-18T05:30:51.920640Z

Period
101.73 min
Inclination
98.8976°
Eccentricity
0.0069577
Mean motion
14.15568132 rev/d
Perigee alt
790.2 km
Apogee alt
890.6 km
Semi-major
7,218.5 km
B*
1.0299e-3
RAAN
171.0632°
Arg perigee
115.0584°
Mean anomaly
36.9266°
Rev number
65,615

§ Raw data

UNKNOWN1 82250U          26261.22976760  .00002019  00000+0  10299-2 0  99972 82250  98.8976 171.0632 0069577 115.0584  36.9266 14.15568132656155

JSON: /api/v1/satellites/82250 · /tle

For live sub-satellite position, see the globe view (requires WebGL).

§ Visibility from observer

Set your observer location to see the next 7 days of passes ≥ 10°. The values pass through the URL so the page stays shareable.

No JS? Fill the form by hand. The geolocation button needs JavaScript.